COSMOS 2251 DEB, 39547

Orbit data source: Space-Track

COSMOS 2251 DEB, 39547 is space debris in LEO originally from a launch on Wed, 16 Jun 1993 UTC launched from the Plesetsk Missile And Space Complex (PKMTR). The debris from Iridium 33, an American commercial communications satellite, has been tracked extensively since its accidental collision with the defunct Russian satellite Cosmos 2251 in 2009. This event, occurring at high speed in low Earth orbit (LEO), generated thousands of pieces of space debris, significantly increasing the risk of further collisions. The Iridium 33 debris cloud has impacted space traffic management and orbital debris mitigation strategies, making it a subject of ongoing study in space situational awareness.

Loading next visibility...
Identifier
39547, 1993-036BUD
Orbit
LEO
Country
Flag of CISCIS
Related business
Manufacturer
Unknown
Mission
Spacecraft
Bus & Motor
Unknown
Mass
Unknown
Launch date (UTC)
1993-06-16 (33 years ago)
Launch vehicle
Unknown
Launch site
Plesetsk Missile And Space Complex (PKMTR)
Object type
Payload
Rocket body
Debris
Shape & HBR
Unknown shape, 0.1 m
Radar Cross Section
Small (<0.1 m²)

Expand to show TLE details & history
Last TLE update: 1 day ago

TLE from 1 day ago
0 COSMOS 2251 DEB
1 39547U 93036BUD 26033.42151068  .00052790  00000-0  32204-2 0  9996
2 39547  73.9965 272.0773 0001107 356.5216 181.5442 15.10067528648035
Epoch: 2026-02-02T10:06Z
TLE epoch observation values (Epoch: 2026-02-02T10:06:58.522Z)
Latitude
1.7562°
Longitude
167.21532°
Altitude
539.246 km
Speed
7.593 km/s
True Right ascension
06h 06m 18s
True Declination
1° 44' 43"
Sunlit
Object was in full shadow at epoch
Visualization orbit readout
Latitude
Unknown
Longitude
Unknown
Altitude
Unknown
Speed
Unknown
Apparent Right ascension
Unknown
Apparent Declination
Unknown
Sunlit
N/A
Visualization observer readout
Local Sidereal Time
19:44:40
Azimuth
Unknown
Elevation
Unknown
Doppler factor
Unknown
Orbital elements
Apogee altitude
534.305 km
Perigee altitude
532.775 km
Semi-major axis
6,911.677 km
Eccentricity
0.00011
Inclination
73.9965°
RAAN
272.0773°
Arg. of periapsis
356.5216°
True anomaly
181.54386°
Mean anomaly
181.5442°
Eccentric anomaly
181.54403°
Mean motion
3.77718 °/min
Orbital period
95.31 mins
BSTAR
0.0032204
Loading maneuver chart data...
Computing Atmospheric mass density...
Loading historical data...
Loading historical data...
Loading historical data...
Loading historical data...
Loading historical data...
Loading historical data...
Loading historical data...

Documentation

Showing up to 5 results
|